[Iaude] MPEC R150: 2016 RV33 [a=1.94,e=0.48,i=7.6,H=26.6]

mpec at mpc.eps.harvard.edu mpec at mpc.eps.harvard.edu
Tue Sep 13 22:27:17 EDT 2016


M.P.E.C. 2016-R150                               Issued 2016 Sept. 14, 02:23 UT
 
     The Minor Planet Electronic Circulars contain information on unusual
         minor planets and routine data on comets.  They are published
    on behalf of Division F of the International Astronomical Union by the
          Minor Planet Center, Smithsonian Astrophysical Observatory,
                          Cambridge, MA 02138, U.S.A.

             Prepared using the Tamkin Foundation Computer Network

                              MPC at CFA.HARVARD.EDU
            URL http://www.minorplanetcenter.net/    ISSN 1523-6714


                                   2016 RV33
 
Observations:
     K16R33V* C2016 09 10.24204 23 11 03.24 +11 39 08.4          20.9 VqER150G96
     K16R33V  C2016 09 10.24589 23 11 05.69 +11 40 11.2          21.0 VqER150G96
     K16R33V  C2016 09 10.24969 23 11 08.16 +11 41 12.1          19.6 VqER150G96
     K16R33V  C2016 09 10.25361 23 11 10.63 +11 42 16.5          19.9 VqER150G96
     K16R33V  C2016 09 10.36132 23 12 18.13 +12 10 49.1          19.9 VqER150G96
     K16R33V  C2016 09 10.36161 23 12 18.36 +12 10 53.9          20.3 VqER150G96
     K16R33V  C2016 09 10.36191 23 12 18.54 +12 10 58.4          21.6 VqER150G96
     K16R33V  C2016 09 10.36222 23 12 18.73 +12 11 04.4          21.4 VqER150G96
     K16R33V  C2016 09 10.45965 23 13 20.47 +12 35 59.9          21.0 VqER150G96
     K16R33V  C2016 09 10.45995 23 13 20.67 +12 36 04.0          19.9 VqER150G96
     K16R33V  C2016 09 10.46025 23 13 20.90 +12 36 08.3          19.4 VqER150G96
     K16R33V  C2016 09 10.46054 23 13 21.07 +12 36 12.7          19.8 VqER150G96
     K16R33V KC2016 09 11.03001 23 19 48.06 +14 51 58.8                qER150J95
     K16R33V KC2016 09 11.03481 23 19 50.76 +14 53 02.5                qER150J95
     K16R33V KC2016 09 11.03961 23 19 53.50 +14 54 06.6          20.2 RqER150J95
     K16R33V KC2016 09 11.22268 23 21 55.71 +15 35 21.9          19.4 RoER150291
     K16R33V KC2016 09 11.22441 23 21 56.62 +15 35 44.0          19.6 RoER150291
     K16R33V KC2016 09 11.22613 23 21 57.54 +15 36 06.7          19.9 RoER150291
     K16R33V  C2016 09 12.19984 23 31 00.82 +18 43 49.2          21.1 VqER150G96
     K16R33V  C2016 09 12.20043 23 31 01.10 +18 43 55.6          20.2 VqER150G96
     K16R33V  C2016 09 12.20102 23 31 01.26 +18 44 02.5          20.0 VqER150G96
     K16R33V  C2016 09 12.20161 23 31 01.61 +18 44 08.3          21.3 VqER150G96
     K16R33V ^C2016 09 13.20181 23 38 52.49 +21 19 51.1          20.5 RoER150695
     K16R33V ^C2016 09 13.20564 23 38 53.95 +21 20 23.8          20.4 RoER150695
     K16R33V ^C2016 09 13.20948 23 38 55.40 +21 20 57.3                oER150695
 
Observer details:
291 LPL/Spacewatch II.  Observer R. S. McMillan.  1.8-m f/2.7 reflector + CCD.
695 Kitt Peak.  Observer R. S. McMillan.  2.3-m f/9 reflector + CCD.
G96 Mt. Lemmon Survey.  Observers A. R. Gibbs, R. A. Kowalski.  Measurers
    E. J. Christensen, D. C. Fuls, A. R. Gibbs, A. D. Grauer, J. A. Johnson,
    R. A. Kowalski, S. M. Larson, G. J. Leonard, R. G. Matheny, R. L. Seaman,
    F. C. Shelly.  1.5-m reflector + 10K CCD.
J95 Great Shefford.  Observer P. Birtwhistle.  0.40-m f/6.0 Schmidt-Cassegrain
    + CCD.
 
Orbital elements:
2016 RV33                                                Earth MOID = 0.0172 AU
Epoch 2016 July 31.0 TT = JDT 2457600.5                 MPC
M 352.53382              (2000.0)            P               Q
n   0.36402081     Peri.  339.79670     +0.80906286     +0.58661855
a   1.9426083      Node   344.12773     -0.51952687     +0.68520313
e   0.4798394      Incl.    7.56372     -0.27478923     +0.43171212
P   2.71           H   26.6           G   0.15           U   7
Residuals in seconds of arc
160910 G96  0.3-  0.0     160910 G96  0.1-  0.1-    160912 G96  0.1+  0.3-
160910 G96  0.4-  0.2+    160910 G96  0.4+  0.3-    160912 G96  0.3+  0.2-
160910 G96  0.3+  0.5-    160910 G96  0.2+  0.3-    160912 G96  1.2-  0.5+
160910 G96  0.1-  0.3+    160911 J95  0.1-  0.5+    160912 G96  0.0   0.0
160910 G96  0.4-  0.3-    160911 J95  0.2-  0.3-    160913 695  0.0   0.1+
160910 G96  0.3+  0.1-    160911 J95  0.2+  0.5-    160913 695  0.2+  0.3-
160910 G96  0.2+  0.2-    160911 291  0.2+  0.5+    160913 695  0.2+  0.1+
160910 G96  0.2+  0.9+    160911 291  0.0   0.0
160910 G96  0.2-  0.4+    160911 291  0.1+  0.2+

Ephemeris:
2016 RV33                a,e,i = 1.94, 0.48, 8                   q = 1.0105
Date    TT    R. A. (2000) Decl.     Delta      r     Elong.  Phase     V
2016 08 15    14 05 56.2 -50 56 39   0.1030  1.0126    87.0    87.2    24.8
...
2016 08 30    16 51 55.3 -57 36 20   0.03685 1.0167   100.0    78.0    22.2
...
2016 09 07    22 15 32.2 -09 42 28   0.02419 1.0314   167.7    12.1    19.3
...
2016 09 13    23 37 15.6 +20 51 45   0.04553 1.0476   155.1    23.8    21.1
2016 09 14    23 44 10.1 +23 03 31   0.05000 1.0507   153.2    25.5    21.4
2016 09 15    23 50 05.9 +24 51 37   0.05457 1.0540   151.8    26.8    21.6
...
2016 09 21    00 12 49.2 +30 56 15   0.08347 1.0757   148.0    29.6    22.7
...
2016 09 29    00 26 38.4 +33 36 10   0.1245  1.1101   148.8    27.9    23.5
...
2016 10 14    00 37 45.5 +33 30 12   0.2099  1.1883   153.1    22.3    24.7

A. U. Tomatic                (C) Copyright 2016 MPC           M.P.E.C. 2016-R150




More information about the Iaude mailing list